Погода в Андреаполе

Россия / Тверская область     56˚39′02″N   32˚15′43″E
темп.,
°C
ветер,
м/с
пор.,
м/с
влажн.,
%
обл.,
%
осадки,
мм/ч
давл.,
гПа
погр.,
м
16 января, сб
сб1600:00−21˚св249794 0.1 1014251
03:00−22˚св259796 0.2 1015257
06:00−22˚св259696 0.1 1014233
09:00−23˚ссв259796 0.1 1015166
12:00−20˚с2593100 0.0 1015233
15:00−17˚ссз3691100 0.0 1015268
18:00−18˚ссз3794100 0.0 1014312
21:00−17˚ссз3893100 0.2 1015341
17 января, вс
вс1700:00−18˚ссз3794100 0.0 1016312
03:00−19˚с3796100 0.0 1016233
06:00−21˚ссз259697 0.0 1017117
09:00−21˚с259263 0.0 1018110
12:00−17˚с13860 0.0 1019160
15:00−14˚сз13902 0.0 1019229
18:00−18˚сз229730 0.0 102020
21:00−18˚зсз129725 0.0 102020
18 января, пн
пн1800:00−17˚з129857 0.0 102020
03:00−16˚з129874 0.1 102023
06:00−15˚зюз1297100 0.1 101926
09:00−14˚юз239799 0.3 102085
12:00−12˚з139389 0.1 1019159
15:00−10˚зсз129483 0.1 1019188
18:00−13˚з119783 0.1 101920
21:00−14˚зсз119785 0.1 102020
19 января, вт
вт1900:00−15˚сз119755 0.0 102020
03:00−15˚зюз119771 0.0 102020
06:00−14˚зсз119780 0.1 102020
09:00−15˚зсз119877 0.1 102120
12:00−11˚юз119366 0.0 102181
15:00−10˚юз129466 0.0 1020152
18:00−14˚юз129627 0.0 102120
21:00−14˚ююз229714 0.0 102220
20 января, ср
ср2000:00−15˚ююз23970 0.0 102232
03:00−16˚ю23977 0.0 102382
06:00−16˚ю379760 0.0 1022146
09:00−15˚ю399679 0.0 1022222
12:00−13˚ю41092100 0.0 1021281
15:00−11˚ю51489100 0.0 1019445
18:00−11˚ю5158699 0.0 1018448
21:00−10˚ю61588100 0.0 1017517